Time,TemperatureF,DewpointF,PressureIn,WindDirection,WindDirectionDegrees,WindSpeedMPH,WindSpeedGustMPH,Humidity,HourlyPrecipIn,Conditions,Clouds,dailyrainin,SoftwareType,DateUTC
2013-07-02 00:00:00,72.0,69.5,29.87,SE,142,0.0,0.0,92,0.00,RA,,0.00,WeatherDisplay:10.37,2013-07-02 04:00:00,
2013-07-02 00:01:00,72.0,69.5,29.87,SE,142,0.0,0.0,92,0.00,RA,,0.00,WeatherDisplay:10.37,2013-07-02 04:01:00,
2013-07-02 00:02:00,72.0,69.5,29.87,SE,142,0.0,0.0,92,0.00,RA,,0.00,WeatherDisplay:10.37,2013-07-02 04:02:00,
2013-07-02 00:07:00,72.0,69.5,29.87,SE,142,0.0,0.0,92,0.00,RA,,0.00,WeatherDisplay:10.37,2013-07-02 04:07:00,
2013-07-02 00:12:00,71.9,69.4,29.86,SE,142,0.0,0.0,92,0.00,RA,,0.00,WeatherDisplay:10.37,2013-07-02 04:12:00,
2013-07-02 00:17:00,71.9,69.8,29.86,SE,142,0.0,0.0,93,0.00,FEW,,0.00,WeatherDisplay:10.37,2013-07-02 04:17:00,
2013-07-02 00:22:00,71.7,69.6,29.86,SE,142,0.0,0.0,93,0.00,FEW,,0.00,WeatherDisplay:10.37,2013-07-02 04:22:00,
2013-07-02 00:27:00,71.7,69.5,29.87,South,178,0.0,0.0,93,0.00,FEW,,0.00,WeatherDisplay:10.37,2013-07-02 04:27:00,
2013-07-02 00:32:00,71.6,69.4,29.87,SSW,211,0.0,0.0,93,0.00,FEW,,0.00,WeatherDisplay:10.37,2013-07-02 04:32:00,
2013-07-02 00:37:00,71.4,69.3,29.87,SSW,207,0.0,0.0,93,0.00,FEW,,0.00,WeatherDisplay:10.37,2013-07-02 04:37:00,
2013-07-02 00:42:00,71.3,69.2,29.88,SSW,202,0.0,0.0,93,0.00,FEW,,0.00,WeatherDisplay:10.37,2013-07-02 04:42:00,
2013-07-02 00:47:00,71.3,69.2,29.87,SSW,193,0.0,0.0,93,0.00,FEW,,0.00,WeatherDisplay:10.37,2013-07-02 04:47:00,
2013-07-02 00:52:00,71.2,69.1,29.88,South,185,0.0,0.0,93,0.00,FEW,,0.00,WeatherDisplay:10.37,2013-07-02 04:52:00,
2013-07-02 00:57:00,71.1,69.0,29.88,South,173,0.0,0.0,93,0.00,FEW,,0.00,WeatherDisplay:10.37,2013-07-02 04:57:00,
2013-07-02 01:02:00,71.0,68.9,29.88,SSE,156,0.0,0.0,93,0.00,SCT,,0.00,WeatherDisplay:10.37,2013-07-02 05:02:00,
2013-07-02 01:07:00,71.0,68.9,29.88,SSE,156,0.0,0.0,93,0.00,SCT,,0.00,WeatherDisplay:10.37,2013-07-02 05:07:00,
2013-07-02 01:12:00,70.9,68.8,29.88,SSE,156,0.0,0.0,93,0.00,SCT,,0.00,WeatherDisplay:10.37,2013-07-02 05:12:00,
2013-07-02 01:17:00,70.8,68.7,29.88,SSE,156,0.0,0.0,93,0.00,SCT,,0.00,WeatherDisplay:10.37,2013-07-02 05:17:00,
2013-07-02 01:22:00,70.7,68.6,29.88,SSE,156,0.0,0.0,93,0.00,SCT,,0.00,WeatherDisplay:10.37,2013-07-02 05:22:00,
2013-07-02 01:27:00,70.6,68.5,29.89,SSE,156,0.0,0.0,93,0.00,SCT,,0.00,WeatherDisplay:10.37,2013-07-02 05:27:00,
2013-07-02 01:32:00,70.5,68.4,29.88,SSE,156,0.0,0.0,93,0.00,SCT,,0.00,WeatherDisplay:10.37,2013-07-02 05:32:00,
2013-07-02 01:37:00,70.5,68.4,29.89,SSE,156,0.0,0.0,93,0.00,SCT,,0.00,WeatherDisplay:10.37,2013-07-02 05:37:00,
2013-07-02 01:42:00,70.4,68.3,29.89,SSE,156,0.0,0.0,93,0.00,SCT,,0.00,WeatherDisplay:10.37,2013-07-02 05:42:00,
2013-07-02 01:47:00,70.3,68.2,29.89,SSE,156,0.0,0.0,93,0.00,SCT,,0.00,WeatherDisplay:10.37,2013-07-02 05:47:00,
2013-07-02 01:52:00,70.2,68.1,29.89,SSE,156,0.0,0.0,93,0.00,SCT,,0.00,WeatherDisplay:10.37,2013-07-02 05:52:00,
2013-07-02 01:57:00,70.1,68.0,29.89,SSE,156,0.0,0.0,93,0.00,SCT,,0.00,WeatherDisplay:10.37,2013-07-02 05:57:00,
2013-07-02 02:02:00,70.1,68.0,29.89,SSE,156,0.0,0.0,93,0.00,BKN,,0.00,WeatherDisplay:10.37,2013-07-02 06:02:00,
2013-07-02 02:07:00,70.1,68.0,29.89,SSE,156,0.0,0.0,93,0.00,BKN,,0.00,WeatherDisplay:10.37,2013-07-02 06:07:00,
2013-07-02 02:12:00,70.1,68.0,29.89,SSE,156,0.0,0.0,93,0.00,BKN,,0.00,WeatherDisplay:10.37,2013-07-02 06:12:00,
2013-07-02 02:17:00,70.1,68.0,29.88,SSE,156,0.0,0.0,93,0.00,BKN,,0.00,WeatherDisplay:10.37,2013-07-02 06:17:00,
2013-07-02 02:22:00,70.1,68.0,29.88,SSE,156,0.0,0.0,93,0.00,BKN,,0.00,WeatherDisplay:10.37,2013-07-02 06:22:00,
2013-07-02 02:27:00,70.0,67.9,29.88,SSE,156,0.0,0.0,93,0.00,BKN,,0.00,WeatherDisplay:10.37,2013-07-02 06:27:00,
2013-07-02 02:32:00,69.9,67.8,29.88,SSE,156,0.0,0.0,93,0.00,OVC,,0.00,WeatherDisplay:10.37,2013-07-02 06:32:00,
2013-07-02 02:37:00,69.9,67.8,29.88,SSE,156,0.0,0.0,93,0.00,OVC,,0.00,WeatherDisplay:10.37,2013-07-02 06:37:00,
2013-07-02 02:42:00,69.8,67.7,29.88,SSE,156,0.0,0.0,93,0.00,OVC,,0.00,WeatherDisplay:10.37,2013-07-02 06:42:00,
2013-07-02 02:47:00,69.8,67.7,29.88,SSE,156,0.0,0.0,93,0.00,OVC,,0.00,WeatherDisplay:10.37,2013-07-02 06:47:00,
2013-07-02 02:52:00,69.7,67.6,29.88,SSE,156,0.0,0.0,93,0.00,OVC,,0.00,WeatherDisplay:10.37,2013-07-02 06:52:00,
2013-07-02 02:57:00,69.6,67.8,29.88,SSE,156,0.0,0.0,94,0.00,OVC,,0.00,WeatherDisplay:10.37,2013-07-02 06:57:00,
2013-07-02 03:02:00,69.6,67.8,29.88,SSE,156,0.0,0.0,94,0.00,OVC,,0.00,WeatherDisplay:10.37,2013-07-02 07:02:00,
2013-07-02 03:07:00,69.5,67.4,29.88,SSE,156,0.0,0.0,93,0.00,OVC,,0.00,WeatherDisplay:10.37,2013-07-02 07:07:00,
2013-07-02 03:12:00,69.4,67.6,29.88,SSE,156,0.0,0.0,94,0.00,BKN,,0.00,WeatherDisplay:10.37,2013-07-02 07:12:00,
2013-07-02 03:17:00,69.4,67.6,29.88,SSE,156,0.0,0.0,94,0.00,BKN,,0.00,WeatherDisplay:10.37,2013-07-02 07:17:00,
2013-07-02 03:22:00,69.3,67.5,29.88,SSE,156,0.0,0.0,94,0.00,BKN,,0.00,WeatherDisplay:10.37,2013-07-02 07:22:00,
2013-07-02 03:27:00,69.3,67.5,29.88,SSE,156,0.0,0.0,94,0.00,BKN,,0.00,WeatherDisplay:10.37,2013-07-02 07:27:00,
2013-07-02 03:32:00,69.2,67.4,29.88,SSE,156,0.0,0.0,94,0.00,BKN,,0.00,WeatherDisplay:10.37,2013-07-02 07:32:00,
2013-07-02 03:37:00,69.2,67.4,29.88,SSE,156,0.0,0.0,94,0.00,BKN,,0.00,WeatherDisplay:10.37,2013-07-02 07:37:00,
2013-07-02 03:42:00,69.2,67.4,29.88,SSE,156,0.0,0.0,94,0.00,BKN,,0.00,WeatherDisplay:10.37,2013-07-02 07:42:00,
2013-07-02 03:47:00,69.2,67.4,29.88,SSE,156,0.0,0.0,94,0.00,BKN,,0.00,WeatherDisplay:10.37,2013-07-02 07:47:00,
2013-07-02 03:52:00,69.1,67.3,29.88,SSE,156,0.0,0.0,94,0.00,BKN,,0.00,WeatherDisplay:10.37,2013-07-02 07:52:00,
2013-07-02 03:57:00,69.0,67.2,29.88,SSE,156,0.0,0.0,94,0.00,BKN,,0.00,WeatherDisplay:10.37,2013-07-02 07:57:00,
2013-07-02 04:02:00,69.0,67.2,29.88,SSE,156,0.0,0.0,94,0.00,OVC,,0.00,WeatherDisplay:10.37,2013-07-02 08:02:00,
2013-07-02 04:07:00,69.0,67.2,29.88,SSE,156,0.0,0.0,94,0.00,OVC,,0.00,WeatherDisplay:10.37,2013-07-02 08:07:00,
2013-07-02 04:12:00,68.9,67.1,29.88,SSE,156,0.0,0.0,94,0.00,OVC,,0.00,WeatherDisplay:10.37,2013-07-02 08:12:00,
2013-07-02 04:17:00,68.9,67.1,29.88,SSE,156,0.0,0.0,94,0.00,OVC,,0.00,WeatherDisplay:10.37,2013-07-02 08:17:00,
2013-07-02 04:22:00,68.8,67.0,29.88,SSE,156,0.0,0.0,94,0.00,OVC,,0.00,WeatherDisplay:10.37,2013-07-02 08:22:00,
2013-07-02 04:27:00,68.8,67.0,29.88,SSE,156,0.0,0.0,94,0.00,OVC,,0.00,WeatherDisplay:10.37,2013-07-02 08:27:00,
2013-07-02 04:32:00,68.7,66.9,29.88,SSE,156,0.0,0.0,94,0.00,OVC,,0.00,WeatherDisplay:10.37,2013-07-02 08:32:00,
2013-07-02 04:37:00,68.7,66.9,29.89,SSE,156,0.0,0.0,94,0.00,OVC,,0.00,WeatherDisplay:10.37,2013-07-02 08:37:00,
2013-07-02 04:42:00,68.6,66.8,29.89,SSE,156,0.0,0.0,94,0.00,OVC,,0.00,WeatherDisplay:10.37,2013-07-02 08:42:00,
2013-07-02 04:47:00,68.6,67.1,29.89,SSE,156,0.0,0.0,95,0.00,OVC,,0.00,WeatherDisplay:10.37,2013-07-02 08:47:00,
2013-07-02 04:52:00,68.6,67.1,29.89,SSE,156,0.0,0.0,95,0.00,OVC,,0.00,WeatherDisplay:10.37,2013-07-02 08:52:00,
2013-07-02 04:57:00,68.5,66.7,29.89,SSE,156,0.0,0.0,94,0.00,OVC,,0.00,WeatherDisplay:10.37,2013-07-02 08:57:00,
2013-07-02 05:02:00,68.4,66.6,29.89,SSE,156,0.0,0.0,94,0.00,CLR,,0.00,WeatherDisplay:10.37,2013-07-02 09:02:00,
2013-07-02 05:07:00,68.4,66.9,29.89,SSE,156,0.0,0.0,95,0.00,CLR,,0.00,WeatherDisplay:10.37,2013-07-02 09:07:00,
2013-07-02 05:12:00,68.3,66.8,29.89,SSE,156,0.0,0.0,95,0.00,CLR,,0.00,WeatherDisplay:10.37,2013-07-02 09:12:00,
2013-07-02 05:17:00,68.2,66.4,29.89,SSE,156,0.0,0.0,94,0.00,CLR,,0.00,WeatherDisplay:10.37,2013-07-02 09:17:00,
2013-07-02 05:22:00,68.1,66.3,29.89,SSE,156,0.0,0.0,94,0.00,CLR,,0.00,WeatherDisplay:10.37,2013-07-02 09:22:00,
2013-07-02 05:27:00,67.9,66.1,29.90,SSE,156,0.0,0.0,94,0.00,CLR,,0.00,WeatherDisplay:10.37,2013-07-02 09:27:00,
2013-07-02 05:32:00,67.8,66.0,29.90,SSE,156,0.0,0.0,94,0.00,CLR,,0.00,WeatherDisplay:10.37,2013-07-02 09:32:00,
2013-07-02 05:37:00,67.7,65.9,29.90,SSE,156,0.0,0.0,94,0.00,CLR,,0.00,WeatherDisplay:10.37,2013-07-02 09:37:00,
2013-07-02 05:42:00,67.6,65.8,29.90,SSE,156,0.0,0.0,94,0.00,CLR,,0.00,WeatherDisplay:10.37,2013-07-02 09:42:00,
2013-07-02 05:47:00,67.6,65.8,29.90,SSE,156,0.0,0.0,94,0.00,CLR,,0.00,WeatherDisplay:10.37,2013-07-02 09:47:00,
2013-07-02 05:52:00,67.6,65.8,29.90,SSE,156,0.0,0.0,94,0.00,CLR,,0.00,WeatherDisplay:10.37,2013-07-02 09:52:00,
2013-07-02 05:57:00,67.6,66.1,29.91,SSE,156,0.0,0.0,95,0.00,CLR,,0.00,WeatherDisplay:10.37,2013-07-02 09:57:00,
2013-07-02 06:02:00,67.6,66.1,29.91,SSE,156,0.0,0.0,95,0.00,CLR,,0.00,WeatherDisplay:10.37,2013-07-02 10:02:00,
2013-07-02 06:07:00,67.6,66.1,29.91,SSE,156,0.0,0.0,95,0.00,CLR,,0.00,WeatherDisplay:10.37,2013-07-02 10:07:00,
2013-07-02 06:12:00,67.5,66.0,29.91,SSE,156,0.0,0.0,95,0.00,SCT,,0.00,WeatherDisplay:10.37,2013-07-02 10:12:00,
2013-07-02 06:17:00,67.5,66.0,29.91,SSE,156,0.0,0.0,95,0.00,SCT,,0.00,WeatherDisplay:10.37,2013-07-02 10:17:00,
2013-07-02 06:22:00,67.5,66.0,29.92,SSE,156,0.0,0.0,95,0.00,SCT,,0.00,WeatherDisplay:10.37,2013-07-02 10:22:00,
2013-07-02 06:27:00,67.5,66.0,29.92,SSE,156,0.0,0.0,95,0.00,SCT,,0.00,WeatherDisplay:10.37,2013-07-02 10:27:00,
2013-07-02 06:32:00,67.6,66.1,29.92,SSE,156,0.0,0.0,95,0.00,BKN,,0.00,WeatherDisplay:10.37,2013-07-02 10:32:00,
2013-07-02 06:37:00,67.7,66.2,29.92,SSE,156,0.0,0.0,95,0.00,BKN,,0.00,WeatherDisplay:10.37,2013-07-02 10:37:00,
2013-07-02 06:42:00,67.8,66.6,29.92,SSE,156,0.0,0.0,96,0.00,BKN,,0.00,WeatherDisplay:10.37,2013-07-02 10:42:00,
2013-07-02 06:47:00,67.8,66.6,29.93,SSE,156,0.0,0.0,96,0.00,BKN,,0.00,WeatherDisplay:10.37,2013-07-02 10:47:00,
2013-07-02 06:52:00,67.9,66.7,29.93,SSE,156,0.0,0.0,96,0.00,OVC,,0.00,WeatherDisplay:10.37,2013-07-02 10:52:00,
2013-07-02 06:57:00,68.0,66.8,29.93,SSE,156,0.0,0.0,96,0.00,OVC,,0.00,WeatherDisplay:10.37,2013-07-02 10:57:00,
2013-07-02 07:02:00,68.1,66.9,29.93,SSE,156,0.0,0.0,96,0.00,OVC,,0.00,WeatherDisplay:10.37,2013-07-02 11:02:00,
2013-07-02 07:07:00,68.2,67.0,29.93,SSE,156,0.0,0.0,96,0.00,OVC,,0.00,WeatherDisplay:10.37,2013-07-02 11:07:00,
2013-07-02 07:12:00,68.3,67.1,29.94,SSE,156,0.0,0.0,96,0.00,OVC,,0.00,WeatherDisplay:10.37,2013-07-02 11:12:00,
2013-07-02 07:17:00,68.3,67.1,29.94,SSE,156,0.0,0.0,96,0.00,OVC,,0.00,WeatherDisplay:10.37,2013-07-02 11:17:00,
2013-07-02 07:22:00,68.4,67.2,29.94,SSE,156,0.0,0.0,96,0.00,OVC,,0.00,WeatherDisplay:10.37,2013-07-02 11:22:00,
2013-07-02 07:27:00,68.5,67.3,29.94,SSE,156,0.0,0.0,96,0.00,OVC,,0.00,WeatherDisplay:10.37,2013-07-02 11:27:00,
2013-07-02 07:32:00,68.5,67.3,29.94,SSE,156,0.0,0.0,96,0.00,OVC,,0.00,WeatherDisplay:10.37,2013-07-02 11:32:00,
2013-07-02 07:37:00,68.6,67.4,29.94,SSE,156,0.0,0.0,96,0.00,OVC,,0.00,WeatherDisplay:10.37,2013-07-02 11:37:00,
2013-07-02 07:42:00,68.7,67.5,29.94,SSE,156,0.0,0.0,96,0.00,OVC,,0.00,WeatherDisplay:10.37,2013-07-02 11:42:00,
2013-07-02 07:47:00,68.8,67.6,29.94,SSE,156,0.0,0.0,96,0.00,OVC,,0.00,WeatherDisplay:10.37,2013-07-02 11:47:00,
2013-07-02 07:52:00,68.9,67.7,29.94,South,179,0.0,0.0,96,0.00,OVC,,0.00,WeatherDisplay:10.37,2013-07-02 11:52:00,
2013-07-02 07:57:00,68.9,67.7,29.94,SSW,202,0.0,0.0,96,0.00,OVC,,0.00,WeatherDisplay:10.37,2013-07-02 11:57:00,
2013-07-02 08:02:00,69.0,67.8,29.94,SSW,202,0.0,0.0,96,0.00,OVC,,0.00,WeatherDisplay:10.37,2013-07-02 12:02:00,
2013-07-02 08:07:00,69.1,67.9,29.95,SSW,202,0.0,0.0,96,0.00,OVC,,0.00,WeatherDisplay:10.37,2013-07-02 12:07:00,
2013-07-02 08:12:00,69.1,67.9,29.95,SSW,202,0.0,0.0,96,0.00,OVC,,0.00,WeatherDisplay:10.37,2013-07-02 12:12:00,
2013-07-02 08:17:00,69.2,68.0,29.95,SSW,202,0.0,0.0,96,0.00,OVC,,0.00,WeatherDisplay:10.37,2013-07-02 12:17:00,
2013-07-02 08:22:00,69.2,68.0,29.95,SSW,202,0.0,0.0,96,0.00,OVC,,0.00,WeatherDisplay:10.37,2013-07-02 12:22:00,
2013-07-02 08:27:00,69.3,68.1,29.95,SSW,202,0.0,0.0,96,0.00,OVC,,0.00,WeatherDisplay:10.37,2013-07-02 12:27:00,
2013-07-02 08:32:00,69.4,68.2,29.95,SSW,202,0.0,0.0,96,0.00,OVC,,0.00,WeatherDisplay:10.37,2013-07-02 12:32:00,
2013-07-02 08:37:00,69.4,68.2,29.95,SSW,202,0.0,0.0,96,0.00,OVC,,0.00,WeatherDisplay:10.37,2013-07-02 12:37:00,
2013-07-02 08:42:00,69.5,68.3,29.96,SSW,204,0.0,0.0,96,0.00,OVC,,0.00,WeatherDisplay:10.37,2013-07-02 12:42:00,
2013-07-02 08:47:00,69.6,68.4,29.96,SSW,204,0.0,0.0,96,0.00,OVC,,0.00,WeatherDisplay:10.37,2013-07-02 12:47:00,
2013-07-02 08:52:00,69.8,68.6,29.96,SSW,204,0.0,0.0,96,0.00,OVC,,0.00,WeatherDisplay:10.37,2013-07-02 12:52:00,
2013-07-02 08:57:00,69.9,68.7,29.96,SSW,204,0.0,0.0,96,0.00,OVC,,0.00,WeatherDisplay:10.37,2013-07-02 12:57:00,
2013-07-02 09:02:00,70.1,68.9,29.96,SSW,202,0.0,0.0,96,0.00,OVC,,0.00,WeatherDisplay:10.37,2013-07-02 13:02:00,
2013-07-02 09:07:00,70.4,69.2,29.96,SSW,202,0.0,0.0,96,0.00,OVC,,0.00,WeatherDisplay:10.37,2013-07-02 13:07:00,
2013-07-02 09:12:00,70.5,69.3,29.96,SSW,202,0.0,0.0,96,0.00,OVC,,0.00,WeatherDisplay:10.37,2013-07-02 13:12:00,
2013-07-02 09:17:00,70.7,69.2,29.96,SSW,202,0.0,0.0,95,0.00,OVC,,0.00,WeatherDisplay:10.37,2013-07-02 13:17:00,
2013-07-02 09:22:00,70.8,69.3,29.96,SSW,202,0.0,0.0,95,0.00,OVC,,0.00,WeatherDisplay:10.37,2013-07-02 13:22:00,
2013-07-02 09:27:00,71.0,69.5,29.96,SSW,194,0.0,0.0,95,0.00,OVC,,0.00,WeatherDisplay:10.37,2013-07-02 13:27:00,
2013-07-02 09:32:00,71.1,69.6,29.96,SSW,194,0.0,0.0,95,0.00,OVC,,0.00,WeatherDisplay:10.37,2013-07-02 13:32:00,
2013-07-02 09:37:00,71.4,69.6,29.96,SE,136,0.0,0.0,94,0.00,OVC,,0.00,WeatherDisplay:10.37,2013-07-02 13:37:00,
2013-07-02 09:42:00,71.7,69.6,29.96,SE,142,1.2,1.2,93,0.00,OVC,,0.00,WeatherDisplay:10.37,2013-07-02 13:42:00,
2013-07-02 09:47:00,72.1,70.0,29.96,SE,142,0.0,0.0,93,0.00,OVC,,0.00,WeatherDisplay:10.37,2013-07-02 13:47:00,
2013-07-02 09:52:00,72.4,69.9,29.96,SE,133,2.0,2.0,92,0.00,OVC,,0.00,WeatherDisplay:10.37,2013-07-02 13:52:00,
2013-07-02 09:57:00,72.7,69.9,29.96,SE,141,2.0,2.0,91,0.00,OVC,,0.00,WeatherDisplay:10.37,2013-07-02 13:57:00,
2013-07-02 10:02:00,73.0,69.9,29.96,SE,140,1.2,1.2,90,0.00,OVC,,0.00,WeatherDisplay:10.37,2013-07-02 14:02:00,
2013-07-02 10:07:00,73.2,69.8,29.96,SE,127,2.3,2.3,89,0.00,OVC,,0.00,WeatherDisplay:10.37,2013-07-02 14:07:00,
2013-07-02 10:12:00,73.5,69.7,29.96,SE,134,0.0,0.3,88,0.00,OVC,,0.00,WeatherDisplay:10.37,2013-07-02 14:12:00,
2013-07-02 10:17:00,73.7,69.2,29.96,ESE,121,2.3,2.3,86,0.00,OVC,,0.00,WeatherDisplay:10.37,2013-07-02 14:17:00,
2013-07-02 10:22:00,73.8,69.7,29.96,SW,231,1.2,0.0,87,0.00,OVC,,0.00,WeatherDisplay:10.37,2013-07-02 14:22:00,
2013-07-02 10:27:00,74.0,69.9,29.96,WSW,250,1.2,0.0,87,0.00,OVC,,0.00,WeatherDisplay:10.37,2013-07-02 14:27:00,
2013-07-02 10:32:00,74.2,69.7,29.96,SE,138,3.5,3.5,86,0.00,OVC,,0.00,WeatherDisplay:10.37,2013-07-02 14:32:00,
2013-07-02 10:37:00,74.3,69.1,29.96,SE,134,4.6,4.6,84,0.00,OVC,,0.00,WeatherDisplay:10.37,2013-07-02 14:37:00,
2013-07-02 10:42:00,74.5,69.0,29.96,SE,146,2.3,2.3,83,0.00,OVC,,0.00,WeatherDisplay:10.37,2013-07-02 14:42:00,
2013-07-02 10:47:00,75.0,69.1,29.96,SE,133,3.5,0.0,82,0.00,OVC,,0.00,WeatherDisplay:10.37,2013-07-02 14:47:00,
2013-07-02 10:52:00,75.3,69.1,29.96,WSW,252,4.6,4.6,81,0.00,OVC,,0.00,WeatherDisplay:10.37,2013-07-02 14:52:00,
2013-07-02 10:57:00,75.6,68.6,29.96,SE,135,2.3,2.3,79,0.00,OVC,,0.00,WeatherDisplay:10.37,2013-07-02 14:57:00,
2013-07-02 11:02:00,75.8,68.4,29.96,SE,134,1.2,0.0,78,0.00,BKN,,0.00,WeatherDisplay:10.37,2013-07-02 15:02:00,
2013-07-02 11:07:00,76.1,68.7,29.96,SE,132,0.0,0.0,78,0.00,BKN,,0.00,WeatherDisplay:10.37,2013-07-02 15:07:00,
2013-07-02 11:12:00,76.4,69.4,29.97,SE,134,3.5,3.5,79,0.00,BKN,,0.00,WeatherDisplay:10.37,2013-07-02 15:12:00,
2013-07-02 11:17:00,76.6,68.8,29.97,ESE,123,3.0,3.0,77,0.00,BKN,,0.00,WeatherDisplay:10.37,2013-07-02 15:17:00,
2013-07-02 11:22:00,76.7,68.9,29.97,SSE,157,3.5,3.5,77,0.00,BKN,,0.00,WeatherDisplay:10.37,2013-07-02 15:22:00,
2013-07-02 11:27:00,76.9,68.4,29.97,WSW,250,2.3,2.3,75,0.00,BKN,,0.00,WeatherDisplay:10.37,2013-07-02 15:27:00,
2013-07-02 11:32:00,77.1,68.9,29.97,SE,139,5.8,5.8,76,0.00,BKN,,0.00,WeatherDisplay:10.37,2013-07-02 15:32:00,
2013-07-02 11:37:00,77.4,68.1,29.97,WSW,252,4.6,4.6,73,0.00,BKN,,0.00,WeatherDisplay:10.37,2013-07-02 15:37:00,
2013-07-02 11:42:00,77.5,68.2,29.97,SSE,161,2.3,2.3,73,0.00,BKN,,0.00,WeatherDisplay:10.37,2013-07-02 15:42:00,
2013-07-02 11:47:00,77.5,68.6,29.97,ESE,109,2.0,2.0,74,0.00,BKN,,0.00,WeatherDisplay:10.37,2013-07-02 15:47:00,
2013-07-02 11:52:00,77.7,69.1,29.97,SE,144,3.0,3.0,75,0.00,BKN,,0.00,WeatherDisplay:10.37,2013-07-02 15:52:00,
2013-07-02 11:57:00,77.9,68.9,29.97,WSW,254,2.3,0.0,74,0.00,BKN,,0.00,WeatherDisplay:10.37,2013-07-02 15:57:00,
2013-07-02 12:02:00,78.0,69.0,29.97,WNW,302,1.2,1.2,74,0.00,BKN,,0.00,WeatherDisplay:10.37,2013-07-02 16:02:00,
2013-07-02 12:07:00,77.9,68.1,29.97,South,179,1.2,0.0,72,0.00,BKN,,0.00,WeatherDisplay:10.37,2013-07-02 16:07:00,
2013-07-02 12:12:00,77.8,68.4,29.97,SW,223,3.5,3.5,73,0.00,BKN,,0.00,WeatherDisplay:10.37,2013-07-02 16:12:00,
2013-07-02 12:17:00,77.7,68.7,29.97,NE,44,2.3,2.3,74,0.00,BKN,,0.00,WeatherDisplay:10.37,2013-07-02 16:17:00,
2013-07-02 12:22:00,77.7,68.7,29.97,SE,132,3.5,3.5,74,0.00,BKN,,0.00,WeatherDisplay:10.37,2013-07-02 16:22:00,
2013-07-02 12:27:00,78.0,69.0,29.97,SE,143,2.3,2.3,74,0.00,BKN,,0.00,WeatherDisplay:10.37,2013-07-02 16:27:00,
2013-07-02 12:33:00,78.2,68.4,29.97,SSE,167,3.5,3.5,72,0.00,BKN,,0.00,WeatherDisplay:10.37,2013-07-02 16:33:00,
2013-07-02 12:38:00,78.6,69.2,29.96,ESE,106,4.6,4.6,73,0.00,BKN,,0.00,WeatherDisplay:10.37,2013-07-02 16:38:00,
2013-07-02 12:43:00,78.9,69.1,29.96,ENE,67,2.3,2.3,72,0.00,BKN,,0.00,WeatherDisplay:10.37,2013-07-02 16:43:00,
2013-07-02 12:48:00,78.9,68.7,29.96,SE,140,0.0,0.0,71,0.00,BKN,,0.00,WeatherDisplay:10.37,2013-07-02 16:48:00,
2013-07-02 12:53:00,78.8,69.0,29.96,West,261,2.3,2.3,72,0.00,BKN,,0.00,WeatherDisplay:10.37,2013-07-02 16:53:00,
2013-07-02 12:58:00,78.7,68.9,29.97,SE,140,2.3,2.3,72,0.00,BKN,,0.00,WeatherDisplay:10.37,2013-07-02 16:58:00,
2013-07-02 13:03:00,78.7,69.3,29.97,WNW,284,1.2,1.2,73,0.00,BKN,,0.00,WeatherDisplay:10.37,2013-07-02 17:03:00,
2013-07-02 13:08:00,79.0,69.6,29.96,West,265,3.5,3.5,73,0.00,BKN,,0.00,WeatherDisplay:10.37,2013-07-02 17:08:00,
2013-07-02 13:13:00,79.5,69.7,29.96,NE,36,2.3,2.3,72,0.00,BKN,,0.00,WeatherDisplay:10.37,2013-07-02 17:13:00,
2013-07-02 13:18:00,80.3,70.9,29.96,SE,144,1.2,1.2,73,0.00,BKN,,0.00,WeatherDisplay:10.37,2013-07-02 17:18:00,
2013-07-02 13:23:00,80.6,69.1,29.96,WSW,248,8.1,8.1,68,0.00,BKN,,0.00,WeatherDisplay:10.37,2013-07-02 17:23:00,
2013-07-02 13:26:00,80.7,70.0,29.96,South,181,1.2,1.2,70,0.00,BKN,,0.00,WeatherDisplay:10.37,2013-07-02 17:26:00,
2013-07-02 13:31:00,80.4,69.3,29.96,East,101,1.2,1.2,69,0.00,BKN,,0.00,WeatherDisplay:10.37,2013-07-02 17:31:00,
2013-07-02 13:36:00,80.2,69.1,29.96,ESE,114,2.3,2.3,69,0.00,BKN,,0.00,WeatherDisplay:10.37,2013-07-02 17:36:00,
2013-07-02 13:41:00,80.3,70.0,29.96,ESE,107,3.5,3.5,71,0.00,BKN,,0.00,WeatherDisplay:10.37,2013-07-02 17:41:00,
2013-07-02 13:46:00,80.6,69.9,29.96,West,279,3.5,3.5,70,0.00,BKN,,0.00,WeatherDisplay:10.37,2013-07-02 17:46:00,
2013-07-02 13:51:00,81.1,70.0,29.96,ENE,72,0.0,0.2,69,0.00,BKN,,0.00,WeatherDisplay:10.37,2013-07-02 17:51:00,
2013-07-02 13:56:00,81.5,69.5,29.96,SSW,200,3.5,3.5,67,0.00,BKN,,0.00,WeatherDisplay:10.37,2013-07-02 17:56:00,
2013-07-02 14:01:00,82.1,70.1,29.96,ESE,123,1.2,1.2,67,0.00,BKN,,0.00,WeatherDisplay:10.37,2013-07-02 18:01:00,
2013-07-02 14:06:00,82.5,70.9,29.95,East,90,1.2,1.2,68,0.00,BKN,,0.00,WeatherDisplay:10.37,2013-07-02 18:06:00,
2013-07-02 14:11:00,82.3,70.2,29.95,ENE,78,0.0,0.4,67,0.00,BKN,,0.00,WeatherDisplay:10.37,2013-07-02 18:11:00,
2013-07-02 14:16:00,81.6,68.2,29.95,SE,138,4.6,4.6,64,0.00,BKN,,0.00,WeatherDisplay:10.37,2013-07-02 18:16:00,
2013-07-02 14:21:00,81.3,68.9,29.95,NW,306,1.2,1.2,66,0.00,BKN,,0.00,WeatherDisplay:10.37,2013-07-02 18:21:00,
2013-07-02 14:26:00,81.2,70.9,29.95,SSE,147,0.0,0.2,71,0.00,BKN,,0.00,WeatherDisplay:10.37,2013-07-02 18:26:00,
2013-07-02 14:31:00,81.2,68.8,29.95,ENE,73,2.3,2.3,66,0.00,BKN,,0.00,WeatherDisplay:10.37,2013-07-02 18:31:00,
2013-07-02 14:36:00,81.1,69.1,29.95,WNW,290,0.0,0.2,67,0.00,BKN,,0.00,WeatherDisplay:10.37,2013-07-02 18:36:00,
2013-07-02 14:41:00,80.8,70.5,29.95,SE,130,1.2,0.0,71,0.00,BKN,,0.00,WeatherDisplay:10.37,2013-07-02 18:41:00,
2013-07-02 14:46:00,80.7,70.0,29.95,West,280,2.3,0.0,70,0.00,BKN,,0.00,WeatherDisplay:10.37,2013-07-02 18:46:00,
2013-07-02 14:51:00,80.6,69.9,29.95,NNW,332,2.3,2.3,70,0.00,BKN,,0.00,WeatherDisplay:10.37,2013-07-02 18:51:00,
2013-07-02 14:56:00,80.8,71.7,29.95,ESE,102,1.2,1.2,74,0.00,BKN,,0.00,WeatherDisplay:10.37,2013-07-02 18:56:00,
2013-07-02 15:01:00,81.1,71.6,29.94,ENE,78,1.2,1.2,73,0.00,BKN,,0.00,WeatherDisplay:10.37,2013-07-02 19:01:00,
2013-07-02 15:06:00,81.6,69.6,29.94,WSW,249,5.0,5.0,67,0.00,BKN,,0.00,WeatherDisplay:10.37,2013-07-02 19:06:00,
2013-07-02 15:11:00,82.1,69.2,29.94,WSW,251,3.5,3.5,65,0.00,BKN,,0.00,WeatherDisplay:10.37,2013-07-02 19:11:00,
2013-07-02 15:16:00,82.1,69.2,29.94,ESE,117,0.0,0.0,65,0.00,BKN,,0.00,WeatherDisplay:10.37,2013-07-02 19:16:00,
2013-07-02 15:21:00,81.8,69.3,29.94,SE,144,1.2,1.2,66,0.00,BKN,,0.00,WeatherDisplay:10.37,2013-07-02 19:21:00,
2013-07-02 15:26:00,81.7,70.1,29.94,SE,143,0.0,0.0,68,0.00,BKN,,0.00,WeatherDisplay:10.37,2013-07-02 19:26:00,
2013-07-02 15:31:00,81.5,69.5,29.94,SE,143,0.0,0.1,67,0.00,BKN,,0.00,WeatherDisplay:10.37,2013-07-02 19:31:00,
2013-07-02 15:36:00,81.4,70.2,29.94,SE,134,0.0,0.0,69,0.00,BKN,,0.00,WeatherDisplay:10.37,2013-07-02 19:36:00,
2013-07-02 15:41:00,81.2,70.5,29.94,West,262,0.0,0.0,70,0.00,BKN,,0.00,WeatherDisplay:10.37,2013-07-02 19:41:00,
2013-07-02 15:46:00,80.9,70.6,29.94,West,262,0.0,0.0,71,0.00,BKN,,0.00,WeatherDisplay:10.37,2013-07-02 19:46:00,
2013-07-02 15:51:00,80.3,69.6,29.94,South,175,1.2,0.0,70,0.00,BKN,,0.00,WeatherDisplay:10.37,2013-07-02 19:51:00,
2013-07-02 15:56:00,80.1,71.1,29.94,South,175,0.0,0.0,74,0.00,BKN,,0.00,WeatherDisplay:10.37,2013-07-02 19:56:00,
2013-07-02 16:01:00,79.9,71.3,29.94,WNW,298,0.0,0.0,75,0.00,BKN,,0.00,WeatherDisplay:10.37,2013-07-02 20:01:00,
2013-07-02 16:06:00,80.0,70.6,29.94,WNW,298,0.0,0.0,73,0.00,BKN,,0.00,WeatherDisplay:10.37,2013-07-02 20:06:00,
2013-07-02 16:11:00,80.3,70.4,29.94,ESE,121,1.2,1.2,72,0.00,BKN,,0.00,WeatherDisplay:10.37,2013-07-02 20:11:00,
2013-07-02 16:16:00,80.7,71.2,29.94,East,90,1.0,0.0,73,0.00,BKN,,0.00,WeatherDisplay:10.37,2013-07-02 20:16:00,
2013-07-02 16:21:00,81.0,68.6,29.94,WSW,257,2.3,2.3,66,0.00,BKN,,0.00,WeatherDisplay:10.37,2013-07-02 20:21:00,
2013-07-02 16:26:00,81.3,68.9,29.94,SSW,196,1.2,1.2,66,0.00,BKN,,0.00,WeatherDisplay:10.37,2013-07-02 20:26:00,
2013-07-02 16:31:00,81.5,70.3,29.94,South,175,0.0,0.0,69,0.00,BKN,,0.00,WeatherDisplay:10.37,2013-07-02 20:31:00,
2013-07-02 16:36:00,81.5,69.9,29.94,WSW,256,1.2,1.2,68,0.00,BKN,,0.00,WeatherDisplay:10.37,2013-07-02 20:36:00,
2013-07-02 16:41:00,81.5,69.0,29.94,West,265,3.5,3.5,66,0.00,BKN,,0.00,WeatherDisplay:10.37,2013-07-02 20:41:00,
2013-07-02 16:46:00,81.6,70.0,29.94,SE,144,1.2,1.2,68,0.00,BKN,,0.00,WeatherDisplay:10.37,2013-07-02 20:46:00,
2013-07-02 16:51:00,81.7,69.2,29.94,SE,126,2.3,0.0,66,0.00,BKN,,0.00,WeatherDisplay:10.37,2013-07-02 20:51:00,
2013-07-02 16:56:00,81.9,68.5,29.94,ESE,103,2.3,2.3,64,0.00,BKN,,0.00,WeatherDisplay:10.37,2013-07-02 20:56:00,
2013-07-02 17:01:00,82.1,68.3,29.94,SSE,160,0.0,1.0,63,0.00,BKN,,0.00,WeatherDisplay:10.37,2013-07-02 21:01:00,
2013-07-02 17:06:00,82.4,67.1,29.94,East,96,3.5,3.5,60,0.00,BKN,,0.00,WeatherDisplay:10.37,2013-07-02 21:06:00,
2013-07-02 17:11:00,82.6,67.3,29.94,SE,136,1.2,1.2,60,0.00,BKN,,0.00,WeatherDisplay:10.37,2013-07-02 21:11:00,
2013-07-02 17:16:00,82.8,69.4,29.94,SE,135,0.0,0.0,64,0.00,BKN,,0.00,WeatherDisplay:10.37,2013-07-02 21:16:00,
2013-07-02 17:21:00,82.5,69.1,29.94,ESE,121,0.0,3.0,64,0.00,BKN,,0.00,WeatherDisplay:10.37,2013-07-02 21:21:00,
2013-07-02 17:26:00,82.3,69.4,29.94,ESE,120,1.0,2.0,65,0.00,BKN,,0.00,WeatherDisplay:10.37,2013-07-02 21:26:00,
2013-07-02 17:31:00,82.3,68.9,29.94,SE,135,0.0,0.0,64,0.00,BKN,,0.00,WeatherDisplay:10.37,2013-07-02 21:31:00,
2013-07-02 17:36:00,82.3,70.2,29.94,SE,125,0.0,4.0,67,0.00,BKN,,0.00,WeatherDisplay:10.37,2013-07-02 21:36:00,
2013-07-02 17:41:00,82.1,69.6,29.93,ESE,118,0.0,0.0,66,0.00,BKN,,0.00,WeatherDisplay:10.37,2013-07-02 21:41:00,
2013-07-02 17:46:00,82.1,70.5,29.94,ESE,106,0.0,0.0,68,0.00,BKN,,0.00,WeatherDisplay:10.37,2013-07-02 21:46:00,
2013-07-02 17:51:00,82.0,70.4,29.94,ESE,109,0.0,0.0,68,0.00,BKN,,0.00,WeatherDisplay:10.37,2013-07-02 21:51:00,
2013-07-02 17:56:00,81.6,69.1,29.94,ESE,119,0.0,0.0,66,0.00,BKN,,0.00,WeatherDisplay:10.37,2013-07-02 21:56:00,
2013-07-02 18:01:00,81.3,69.3,29.94,ESE,118,0.0,0.0,67,0.00,BKN,,0.00,WeatherDisplay:10.37,2013-07-02 22:01:00,
2013-07-02 18:06:00,81.1,69.1,29.94,SW,225,0.0,0.0,67,0.00,BKN,,0.00,WeatherDisplay:10.37,2013-07-02 22:06:00,
2013-07-02 18:11:00,81.1,69.1,29.94,South,189,0.0,0.0,67,0.00,BKN,,0.00,WeatherDisplay:10.37,2013-07-02 22:11:00,
2013-07-02 18:16:00,81.0,69.0,29.94,SSW,209,0.0,0.0,67,0.00,BKN,,0.00,WeatherDisplay:10.37,2013-07-02 22:16:00,
2013-07-02 18:21:00,80.9,68.5,29.94,South,173,0.0,0.0,66,0.00,BKN,,0.00,WeatherDisplay:10.37,2013-07-02 22:21:00,
2013-07-02 18:26:00,80.9,68.5,29.94,SE,140,1.2,1.2,66,0.00,BKN,,0.00,WeatherDisplay:10.37,2013-07-02 22:26:00,
2013-07-02 18:31:00,81.0,69.4,29.94,SE,140,1.2,0.0,68,0.00,BKN,,0.00,WeatherDisplay:10.37,2013-07-02 22:31:00,
2013-07-02 18:36:00,81.1,69.5,29.95,SE,140,0.0,0.0,68,0.00,BKN,,0.00,WeatherDisplay:10.37,2013-07-02 22:36:00,
2013-07-02 18:41:00,81.1,69.5,29.95,SE,140,0.0,0.0,68,0.00,BKN,,0.00,WeatherDisplay:10.37,2013-07-02 22:41:00,
2013-07-02 18:46:00,80.9,69.8,29.95,SE,140,0.0,0.0,69,0.00,BKN,,0.00,WeatherDisplay:10.37,2013-07-02 22:46:00,
2013-07-02 18:51:00,80.7,69.6,29.95,SE,140,0.0,0.0,69,0.00,BKN,,0.00,WeatherDisplay:10.37,2013-07-02 22:51:00,
2013-07-02 18:56:00,80.6,69.5,29.95,SE,140,0.0,0.0,69,0.00,BKN,,0.00,WeatherDisplay:10.37,2013-07-02 22:56:00,
2013-07-02 19:01:00,80.5,69.4,29.95,SE,140,0.0,0.0,69,0.00,BKN,,0.00,WeatherDisplay:10.37,2013-07-02 23:01:00,
2013-07-02 19:06:00,80.4,69.7,29.95,SE,140,0.0,0.0,70,0.00,BKN,,0.00,WeatherDisplay:10.37,2013-07-02 23:06:00,
2013-07-02 19:11:00,80.3,69.6,29.95,SE,140,0.0,0.0,70,0.00,BKN,,0.00,WeatherDisplay:10.37,2013-07-02 23:11:00,
2013-07-02 19:16:00,80.2,69.9,29.95,SE,140,0.0,0.0,71,0.00,BKN,,0.00,WeatherDisplay:10.37,2013-07-02 23:16:00,
2013-07-02 19:21:00,80.0,70.2,29.95,SE,140,0.0,0.0,72,0.00,BKN,,0.00,WeatherDisplay:10.37,2013-07-02 23:21:00,
2013-07-02 19:26:00,79.8,69.6,29.95,SE,140,1.2,1.2,71,0.00,BKN,,0.00,WeatherDisplay:10.37,2013-07-02 23:26:00,
2013-07-02 19:29:00,79.8,69.5,29.95,SE,140,0.0,0.0,71,0.00,BKN,,0.00,WeatherDisplay:10.37,2013-07-02 23:29:00,
2013-07-02 19:34:00,79.6,69.4,29.95,SE,140,0.0,0.0,71,0.00,BKN,,0.00,WeatherDisplay:10.37,2013-07-02 23:34:00,
2013-07-02 19:39:00,79.4,69.2,29.96,SE,140,0.0,0.0,71,0.00,BKN,,0.00,WeatherDisplay:10.37,2013-07-02 23:39:00,
2013-07-02 19:44:00,79.3,69.1,29.96,SE,140,0.0,0.0,71,0.00,BKN,,0.00,WeatherDisplay:10.37,2013-07-02 23:44:00,
2013-07-02 19:49:00,79.1,68.5,29.96,SE,140,0.0,0.0,70,0.00,BKN,,0.00,WeatherDisplay:10.37,2013-07-02 23:49:00,
2013-07-02 19:54:00,79.0,68.8,29.96,SE,141,0.0,0.0,71,0.00,BKN,,0.00,WeatherDisplay:10.37,2013-07-02 23:54:00,
2013-07-02 19:55:00,78.9,69.1,29.96,SE,143,0.0,0.0,72,0.00,BKN,,0.00,WeatherDisplay:10.37,2013-07-02 23:55:00,
2013-07-02 20:00:00,78.9,69.1,29.96,SE,143,0.0,0.0,72,0.00,BKN,,0.00,WeatherDisplay:10.37,2013-07-03 00:00:00,
2013-07-02 20:01:00,78.8,69.0,29.96,SE,143,0.0,0.0,72,0.00,BKN,,0.00,WeatherDisplay:10.37,2013-07-03 00:01:00,
2013-07-02 20:06:00,78.7,68.9,29.97,SE,143,0.0,0.0,72,0.00,BKN,,0.00,WeatherDisplay:10.37,2013-07-03 00:06:00,
2013-07-02 20:11:00,78.6,68.8,29.97,SE,142,0.0,0.0,72,0.00,BKN,,0.00,WeatherDisplay:10.37,2013-07-03 00:11:00,
2013-07-02 20:16:00,78.5,69.1,29.97,SE,142,0.0,0.0,73,0.00,BKN,,0.00,WeatherDisplay:10.37,2013-07-03 00:16:00,
2013-07-02 20:21:00,78.4,69.0,29.98,SE,142,0.0,0.0,73,0.00,BKN,,0.00,WeatherDisplay:10.37,2013-07-03 00:21:00,
2013-07-02 20:26:00,78.3,68.9,29.98,SE,142,0.0,0.0,73,0.00,BKN,,0.00,WeatherDisplay:10.37,2013-07-03 00:26:00,
2013-07-02 20:29:00,78.3,69.3,29.98,SE,142,0.0,0.0,74,0.00,BKN,,0.00,WeatherDisplay:10.37,2013-07-03 00:29:00,
2013-07-02 20:34:00,78.2,68.8,29.98,SE,142,0.0,0.0,73,0.00,BKN,,0.00,WeatherDisplay:10.37,2013-07-03 00:34:00,
2013-07-02 20:39:00,78.1,69.1,29.98,SE,142,0.0,0.0,74,0.00,BKN,,0.00,WeatherDisplay:10.37,2013-07-03 00:39:00,
2013-07-02 20:44:00,78.0,69.0,29.98,SE,142,0.0,0.0,74,0.00,BKN,,0.00,WeatherDisplay:10.37,2013-07-03 00:44:00,
2013-07-02 20:49:00,77.8,68.8,29.98,SE,140,0.0,0.0,74,0.00,BKN,,0.00,WeatherDisplay:10.37,2013-07-03 00:49:00,
2013-07-02 20:54:00,77.8,68.8,29.98,SE,140,0.0,0.0,74,0.00,BKN,,0.00,WeatherDisplay:10.37,2013-07-03 00:54:00,
2013-07-02 20:59:00,77.7,69.1,29.98,SE,140,0.0,0.0,75,0.00,BKN,,0.00,WeatherDisplay:10.37,2013-07-03 00:59:00,
2013-07-02 21:01:00,77.6,68.7,29.98,SE,140,2.3,2.3,74,0.00,BKN,,0.00,WeatherDisplay:10.37,2013-07-03 01:01:00,
2013-07-02 21:03:00,77.6,68.7,29.98,SE,132,2.3,2.3,74,0.00,BKN,,0.00,WeatherDisplay:10.37,2013-07-03 01:03:00,
2013-07-02 21:08:00,77.6,69.0,29.99,SE,132,0.0,0.0,75,0.00,BKN,,0.00,WeatherDisplay:10.37,2013-07-03 01:08:00,
2013-07-02 21:10:00,77.6,68.7,29.99,SE,133,0.0,0.0,74,0.00,BKN,,0.00,WeatherDisplay:10.37,2013-07-03 01:10:00,
2013-07-02 21:15:00,77.5,68.9,29.99,SE,132,0.0,0.0,75,0.00,BKN,,0.00,WeatherDisplay:10.37,2013-07-03 01:15:00,
2013-07-02 21:20:00,77.4,68.9,29.99,SE,133,0.0,0.0,75,0.00,BKN,,0.00,WeatherDisplay:10.37,2013-07-03 01:20:00,
2013-07-02 21:25:00,77.2,68.7,29.99,SE,139,1.0,1.0,75,0.00,BKN,,0.00,WeatherDisplay:10.37,2013-07-03 01:25:00,
2013-07-02 21:29:00,77.2,69.0,29.99,SE,144,0.0,0.0,76,0.00,BKN,,0.00,WeatherDisplay:10.37,2013-07-03 01:29:00,
2013-07-02 21:34:00,77.1,68.9,29.99,SE,144,0.0,0.0,76,0.00,BKN,,0.00,WeatherDisplay:10.37,2013-07-03 01:34:00,
2013-07-02 21:39:00,77.0,69.2,29.99,SE,144,0.0,0.0,77,0.00,BKN,,0.00,WeatherDisplay:10.37,2013-07-03 01:39:00,
2013-07-02 21:44:00,77.0,69.6,29.99,SE,130,0.0,0.0,78,0.00,BKN,,0.00,WeatherDisplay:10.37,2013-07-03 01:44:00,
2013-07-02 21:49:00,76.9,69.9,29.99,SE,132,0.0,0.0,79,0.00,BKN,,0.00,WeatherDisplay:10.37,2013-07-03 01:49:00,
2013-07-02 21:50:00,76.9,69.9,30.00,SE,132,0.0,0.0,79,0.00,BKN,,0.00,WeatherDisplay:10.37,2013-07-03 01:50:00,
2013-07-02 21:55:00,76.8,69.8,30.00,NNW,334,1.2,1.2,79,0.00,BKN,,0.00,WeatherDisplay:10.37,2013-07-03 01:55:00,
2013-07-02 22:01:00,76.8,70.2,30.00,SE,136,0.0,0.2,80,0.00,BKN,,0.00,WeatherDisplay:10.37,2013-07-03 02:01:00,
2013-07-02 22:06:00,76.7,70.1,30.00,SE,134,4.6,4.6,80,0.00,BKN,,0.00,WeatherDisplay:10.37,2013-07-03 02:06:00,
2013-07-02 22:11:00,76.7,70.1,30.00,SE,131,0.0,0.0,80,0.00,BKN,,0.00,WeatherDisplay:10.37,2013-07-03 02:11:00,
2013-07-02 22:16:00,76.6,70.3,30.00,SE,128,0.0,0.0,81,0.00,BKN,,0.00,WeatherDisplay:10.37,2013-07-03 02:16:00,
2013-07-02 22:21:00,76.5,70.2,30.01,SE,127,0.0,0.2,81,0.00,BKN,,0.00,WeatherDisplay:10.37,2013-07-03 02:21:00,
2013-07-02 22:27:00,76.4,69.8,30.01,SE,138,2.3,0.0,80,0.00,BKN,,0.00,WeatherDisplay:10.37,2013-07-03 02:27:00,
2013-07-02 22:32:00,76.4,69.8,30.01,East,82,0.0,0.0,80,0.00,BKN,,0.00,WeatherDisplay:10.37,2013-07-03 02:32:00,
2013-07-02 22:33:00,76.4,70.1,30.01,East,82,0.0,0.0,81,0.00,BKN,,0.00,WeatherDisplay:10.37,2013-07-03 02:33:00,
2013-07-02 22:38:00,76.2,69.6,30.02,ESE,119,1.2,0.0,80,0.00,BKN,,0.00,WeatherDisplay:10.37,2013-07-03 02:38:00,
2013-07-02 22:43:00,76.1,70.2,30.01,ESE,119,0.0,0.0,82,0.00,BKN,,0.00,WeatherDisplay:10.37,2013-07-03 02:43:00,
2013-07-02 22:46:00,76.0,70.1,30.02,ESE,119,0.0,0.0,82,0.00,BKN,,0.00,WeatherDisplay:10.37,2013-07-03 02:46:00,
2013-07-02 22:51:00,75.7,69.5,30.02,SE,124,2.3,0.0,81,0.00,BKN,,0.00,WeatherDisplay:10.37,2013-07-03 02:51:00,
2013-07-02 22:56:00,75.5,69.3,30.02,SE,136,1.0,2.0,81,0.00,BKN,,0.00,WeatherDisplay:10.37,2013-07-03 02:56:00,
2013-07-02 23:01:00,75.3,68.7,30.02,SE,128,0.0,0.0,80,0.00,BKN,,0.00,WeatherDisplay:10.37,2013-07-03 03:01:00,
2013-07-02 23:03:00,75.2,69.0,30.02,ESE,120,0.0,0.0,81,0.00,BKN,,0.00,WeatherDisplay:10.37,2013-07-03 03:03:00,
2013-07-02 23:08:00,75.1,68.5,30.02,ENE,76,4.0,4.0,80,0.00,BKN,,0.00,WeatherDisplay:10.37,2013-07-03 03:08:00,
2013-07-02 23:13:00,74.9,68.3,30.02,SE,141,0.0,0.0,80,0.00,SCT,,0.00,WeatherDisplay:10.37,2013-07-03 03:13:00,
2013-07-02 23:18:00,74.8,68.2,30.02,SSE,158,1.0,0.0,80,0.00,SCT,,0.00,WeatherDisplay:10.37,2013-07-03 03:18:00,
2013-07-02 23:20:00,74.8,68.2,30.02,SSE,151,1.2,1.2,80,0.00,SCT,,0.00,WeatherDisplay:10.37,2013-07-03 03:20:00,
2013-07-02 23:25:00,74.7,68.1,30.02,SSE,151,1.2,1.2,80,0.00,SCT,,0.00,WeatherDisplay:10.37,2013-07-03 03:25:00,
2013-07-02 23:30:00,74.6,68.0,30.02,SSE,151,0.0,0.0,80,0.00,SCT,,0.00,WeatherDisplay:10.37,2013-07-03 03:30:00,
2013-07-02 23:35:00,74.4,68.2,30.02,SSE,151,0.0,0.0,81,0.00,SCT,,0.00,WeatherDisplay:10.37,2013-07-03 03:35:00,
2013-07-02 23:39:00,74.4,68.5,30.02,SE,141,1.2,1.2,82,0.00,SCT,,0.00,WeatherDisplay:10.37,2013-07-03 03:39:00,
2013-07-02 23:44:00,74.2,68.0,30.02,SE,141,0.0,0.0,81,0.00,SCT,,0.00,WeatherDisplay:10.37,2013-07-03 03:44:00,
2013-07-02 23:49:00,74.1,68.3,30.02,East,91,0.0,0.0,82,0.00,SCT,,0.00,WeatherDisplay:10.37,2013-07-03 03:49:00,
2013-07-02 23:50:00,74.1,68.2,30.02,ESE,115,0.0,0.0,82,0.00,SCT,,0.00,WeatherDisplay:10.37,2013-07-03 03:50:00,
2013-07-02 23:55:00,73.9,68.1,30.02,SE,140,1.2,1.2,82,0.00,SCT,,0.00,WeatherDisplay:10.37,2013-07-03 03:55:00,